TimeEST,TemperatureF,Dew PointF,Humidity,Sea Level PressureIn,VisibilityMPH,Wind Direction,Wind SpeedMPH,Gust SpeedMPH,PrecipitationIn,Events,Conditions,WindDirDegrees,DateUTC
12:53 AM,32.0,25.0,75,29.73,10.0,Calm,Calm,-,N/A,,Overcast,0,2013-02-14 05:53:00
1:53 AM,33.1,23.0,66,29.70,10.0,North,4.6,-,N/A,,Overcast,360,2013-02-14 06:53:00
2:53 AM,32.0,23.0,69,29.70,10.0,Calm,Calm,-,N/A,,Overcast,0,2013-02-14 07:53:00
3:53 AM,32.0,21.0,64,29.71,10.0,NNW,8.1,-,N/A,,Mostly Cloudy,340,2013-02-14 08:53:00
4:53 AM,34.0,19.9,56,29.75,10.0,North,9.2,-,N/A,,Overcast,350,2013-02-14 09:53:00
5:53 AM,33.1,18.0,54,29.75,10.0,North,8.1,-,N/A,,Mostly Cloudy,350,2013-02-14 10:53:00
6:53 AM,30.9,17.1,57,29.78,10.0,North,8.1,-,N/A,,Scattered Clouds,350,2013-02-14 11:53:00
7:53 AM,32.0,18.0,56,29.82,10.0,North,5.8,-,N/A,,Scattered Clouds,360,2013-02-14 12:53:00
8:53 AM,36.0,18.0,48,29.84,10.0,North,6.9,-,N/A,,Partly Cloudy,350,2013-02-14 13:53:00
9:53 AM,37.9,18.0,45,29.86,10.0,North,5.8,-,N/A,,Clear,10,2013-02-14 14:53:00
10:53 AM,39.0,17.1,41,29.87,10.0,NW,8.1,-,N/A,,Partly Cloudy,310,2013-02-14 15:53:00
11:53 AM,39.9,18.0,41,29.88,10.0,NW,10.4,-,N/A,,Partly Cloudy,320,2013-02-14 16:53:00
12:53 PM,39.9,19.0,43,29.87,10.0,Variable,3.5,-,N/A,,Partly Cloudy,0,2013-02-14 17:53:00
1:53 PM,41.0,18.0,40,29.88,10.0,WNW,6.9,-,N/A,,Clear,290,2013-02-14 18:53:00
2:53 PM,41.0,17.1,38,29.89,10.0,Calm,Calm,-,N/A,,Clear,0,2013-02-14 19:53:00
3:53 PM,37.9,23.0,55,29.91,10.0,SE,9.2,-,N/A,,Clear,130,2013-02-14 20:53:00
4:53 PM,37.0,23.0,57,29.92,10.0,SE,5.8,-,N/A,,Clear,130,2013-02-14 21:53:00
5:53 PM,36.0,25.0,64,29.95,10.0,SSE,3.5,-,N/A,,Clear,150,2013-02-14 22:53:00
6:53 PM,36.0,24.1,62,29.96,10.0,SSE,5.8,-,N/A,,Clear,150,2013-02-14 23:53:00
7:53 PM,35.1,25.0,67,29.96,10.0,SSE,5.8,-,N/A,,Clear,150,2013-02-15 00:53:00
8:53 PM,34.0,24.1,67,29.97,10.0,Calm,Calm,-,N/A,,Clear,0,2013-02-15 01:53:00
9:53 PM,33.1,24.1,70,29.96,10.0,Calm,Calm,-,N/A,,Clear,0,2013-02-15 02:53:00
10:53 PM,30.9,21.9,69,29.97,10.0,SSW,3.5,-,N/A,,Clear,200,2013-02-15 03:53:00
11:53 PM,33.1,21.9,64,29.98,10.0,Calm,Calm,-,N/A,,Mostly Cloudy,0,2013-02-15 04:53:00